| time (UTC) | temp C | wind direction | speed KPH | gust KPH | rain 1hr cm | rain 24hr cm | rain mn cm | humidity % | barometer mb |
| 20260509222557 | 23 | 272 | 1.6 | 9.7 | 0.00 | 0.00 | 0.00 | 21 | 1022.9 |
| 20260509222058 | 23 | 295 | 4.8 | 11.3 | 0.00 | 0.00 | 0.00 | 20 | 1023.0 |
| 20260509221555 | 23 | 226 | 3.2 | 11.3 | 0.00 | 0.00 | 0.00 | 21 | 1023.1 |
| 20260509221057 | 23 | 44 | 3.2 | 11.3 | 0.00 | 0.00 | 0.00 | 22 | 1023.0 |
| 20260509220556 | 23 | 33 | 4.8 | 12.9 | 0.00 | 0.00 | 0.00 | 21 | 1023.1 |
| 20260509215558 | 23 | 60 | 4.8 | 12.9 | 0.00 | 0.00 | 0.00 | 21 | 1023.2 |
| 20260509215058 | 24 | 342 | 3.2 | 16.1 | 0.00 | 0.00 | 0.00 | 21 | 1023.3 |
| 20260509214558 | 25 | 360 | 4.8 | 16.1 | 0.00 | 0.00 | 0.00 | 21 | 1023.3 |
| 20260509214100 | 25 | 43 | 0.0 | 12.9 | 0.00 | 0.00 | 0.00 | 21 | 1023.2 |
| 20260509213558 | 24 | 259 | 4.8 | 12.9 | 0.00 | 0.00 | 0.00 | 21 | 1023.4 |
| 20260509213102 | 23 | 209 | 3.2 | 11.3 | 0.00 | 0.00 | 0.00 | 22 | 1023.4 |
| 20260509212601 | 23 | 223 | 1.6 | 14.5 | 0.00 | 0.00 | 0.00 | 22 | 1023.4 |
| 20260509212058 | 23 | 249 | 1.6 | 16.1 | 0.00 | 0.00 | 0.00 | 21 | 1023.4 |
| 20260509211603 | 23 | 105 | 4.8 | 20.9 | 0.00 | 0.00 | 0.00 | 21 | 1023.4 |
| 20260509211058 | 23 | 118 | 8.0 | 20.9 | 0.00 | 0.00 | 0.00 | 23 | 1023.5 |
| 20260509210600 | 23 | 47 | 3.2 | 19.3 | 0.00 | 0.00 | 0.00 | 21 | 1023.5 |
| 20260509205557 | 24 | 0 | 3.2 | 16.1 | 0.00 | 0.00 | 0.00 | 20 | 1023.5 |
| 20260509205057 | 24 | 41 | 3.2 | 14.5 | 0.00 | 0.00 | 0.00 | 22 | 1023.5 |
| 20260509204557 | 25 | 298 | 3.2 | 12.9 | 0.00 | 0.00 | 0.00 | 21 | 1023.5 |
| 20260509204057 | 24 | 313 | 1.6 | 8.0 | 0.00 | 0.00 | 0.00 | 20 | 1023.6 |
| 20260509203557 | 24 | 238 | 1.6 | 16.1 | 0.00 | 0.00 | 0.00 | 21 | 1023.6 |
| 20260509203059 | 23 | 309 | 1.6 | 16.1 | 0.00 | 0.00 | 0.00 | 21 | 1023.7 |
| 20260509202600 | 23 | 154 | 4.8 | 11.3 | 0.00 | 0.00 | 0.00 | 21 | 1023.7 |
| 20260509202057 | 23 | 174 | 0.0 | 9.7 | 0.00 | 0.00 | 0.00 | 22 | 1023.8 |
| 20260509201559 | 22 | 234 | 0.0 | 19.3 | 0.00 | 0.00 | 0.00 | 21 | 1023.8 |
| 20260509201056 | 22 | 92 | 3.2 | 19.3 | 0.00 | 0.00 | 0.00 | 23 | 1024.0 |
| 20260509200558 | 23 | 100 | 6.4 | 19.3 | 0.00 | 0.00 | 0.00 | 21 | 1024.0 |
| 20260509195558 | 22 | 63 | 1.6 | 12.9 | 0.00 | 0.00 | 0.00 | 23 | 1024.2 |
| 20260509195057 | 22 | 0 | 3.2 | 12.9 | 0.00 | 0.00 | 0.00 | 23 | 1024.4 |
| 20260509194559 | 22 | 125 | 9.7 | 19.3 | 0.00 | 0.00 | 0.00 | 22 | 1024.4 |
| 20260509194057 | 22 | 225 | 6.4 | 19.3 | 0.00 | 0.00 | 0.00 | 23 | 1024.5 |
| 20260509193559 | 23 | 309 | 4.8 | 9.7 | 0.00 | 0.00 | 0.00 | 23 | 1024.6 |
| 20260509193100 | 23 | 83 | 3.2 | 9.7 | 0.00 | 0.00 | 0.00 | 23 | 1024.6 |
| 20260509192557 | 23 | 63 | 3.2 | 9.7 | 0.00 | 0.00 | 0.00 | 24 | 1024.6 |
| 20260509192059 | 23 | 296 | 3.2 | 9.7 | 0.00 | 0.00 | 0.00 | 22 | 1024.6 |
| 20260509191557 | 23 | 281 | 3.2 | 9.7 | 0.00 | 0.00 | 0.00 | 23 | 1024.6 |
| 20260509191101 | 23 | 297 | 0.0 | 8.0 | 0.00 | 0.00 | 0.00 | 24 | 1024.6 |
| 20260509190649 | 22 | 271 | 3.2 | 8.0 | 0.00 | 0.00 | 0.00 | 24 | 1024.7 |
| 20260509190058 | 22 | 257 | 1.6 | 12.9 | 0.00 | 0.00 | 0.00 | 24 | 1024.7 |
| 20260509185558 | 22 | 32 | 3.2 | 12.9 | 0.00 | 0.00 | 0.00 | 25 | 1024.7 |
| 20260509185057 | 22 | 49 | 0.0 | 8.0 | 0.00 | 0.00 | 0.00 | 25 | 1024.8 |
| 20260509184602 | 22 | 113 | 1.6 | 9.7 | 0.00 | 0.00 | 0.00 | 24 | 1024.9 |
| 20260509184057 | 22 | 308 | 3.2 | 9.7 | 0.00 | 0.00 | 0.00 | 25 | 1025.1 |
| 20260509183601 | 23 | 265 | 1.6 | 9.7 | 0.00 | 0.00 | 0.00 | 25 | 1025.2 |
| 20260509183139 | 22 | 323 | 1.6 | 9.7 | 0.00 | 0.00 | 0.00 | 25 | 1025.1 |
| 20260509182557 | 23 | 229 | 1.6 | 4.8 | 0.00 | 0.00 | 0.00 | 25 | 1025.1 |
| 20260509182058 | 22 | 266 | 1.6 | 4.8 | 0.00 | 0.00 | 0.00 | 25 | 1025.2 |
| 20260509181616 | 22 | 65 | 1.6 | 4.8 | 0.00 | 0.00 | 0.00 | 25 | 1025.2 |
| 20260509181057 | 21 | 30 | 1.6 | 8.0 | 0.00 | 0.00 | 0.00 | 24 | 1025.4 |
| 20260509180557 | 21 | 316 | 3.2 | 8.0 | 0.00 | 0.00 | 0.00 | 24 | 1025.3 |
| 20260509180104 | 21 | 294 | 1.6 | 8.0 | 0.00 | 0.00 | 0.00 | 25 | 1025.3 |
| 20260509175557 | 21 | 307 | 1.6 | 8.0 | 0.00 | 0.00 | 0.00 | 25 | 1025.3 |
| 20260509175059 | 21 | 29 | 3.2 | 8.0 | 0.00 | 0.00 | 0.00 | 25 | 1025.3 |
| 20260509174559 | 20 | 273 | 1.6 | 11.3 | 0.00 | 0.00 | 0.00 | 26 | 1025.3 |
| 20260509174058 | 20 | 15 | 6.4 | 12.9 | 0.00 | 0.00 | 0.00 | 28 | 1025.1 |
| 20260509173601 | 19 | 47 | 6.4 | 12.9 | 0.00 | 0.00 | 0.00 | 28 | 1025.3 |
| 20260509173106 | 19 | 63 | 4.8 | 12.9 | 0.00 | 0.00 | 0.00 | 28 | 1025.1 |
| 20260509172558 | 20 | 49 | 3.2 | 11.3 | 0.00 | 0.00 | 0.00 | 30 | 1025.2 |
| 20260509172100 | 20 | 30 | 4.8 | 8.0 | 0.00 | 0.00 | 0.00 | 30 | 1025.1 |
| 20260509171601 | 20 | 53 | 1.6 | 4.8 | 0.00 | 0.00 | 0.00 | 29 | 1025.1 |
| 20260509171058 | 19 | 0 | 1.6 | 9.7 | 0.00 | 0.00 | 0.00 | 33 | 1025.1 |
| 20260509170557 | 19 | 304 | 4.8 | 9.7 | 0.00 | 0.00 | 0.00 | 33 | 1025.1 |
| 20260509170101 | 19 | 41 | 1.6 | 6.4 | 0.00 | 0.00 | 0.00 | 36 | 1025.1 |
| 20260509165558 | 18 | 41 | 3.2 | 6.4 | 0.00 | 0.00 | 0.00 | 34 | 1025.2 |
| 20260509165057 | 18 | 39 | 1.6 | 4.8 | 0.00 | 0.00 | 0.00 | 35 | 1025.2 |
| 20260509164608 | 18 | 314 | 0.0 | 4.8 | 0.00 | 0.00 | 0.00 | 34 | 1025.2 |
| 20260509164057 | 18 | 0 | 1.6 | 4.8 | 0.00 | 0.00 | 0.00 | 34 | 1025.4 |
| 20260509163558 | 18 | 309 | 1.6 | 4.8 | 0.00 | 0.00 | 0.00 | 35 | 1025.4 |
| 20260509163108 | 17 | 0 | 0.0 | 6.4 | 0.00 | 0.00 | 0.00 | 37 | 1025.6 |
| 20260509162557 | 16 | 0 | 0.0 | 6.4 | 0.00 | 0.00 | 0.00 | 38 | 1025.6 |
| 20260509162056 | 16 | 49 | 0.0 | 6.4 | 0.00 | 0.00 | 0.00 | 40 | 1025.5 |
| 20260509161605 | 16 | 74 | 1.6 | 6.4 | 0.00 | 0.00 | 0.00 | 39 | 1025.5 |
| 20260509161057 | 16 | 0 | 1.6 | 6.4 | 0.00 | 0.00 | 0.00 | 39 | 1025.6 |
| 20260509160558 | 15 | 52 | 3.2 | 6.4 | 0.00 | 0.00 | 0.00 | 40 | 1025.6 |
| 20260509160100 | 15 | 46 | 3.2 | 6.4 | 0.00 | 0.00 | 0.00 | 40 | 1025.5 |
| 20260509155559 | 15 | 64 | 0.0 | 6.4 | 0.00 | 0.00 | 0.00 | 39 | 1025.5 |
| 20260509155058 | 15 | 0 | 1.6 | 6.4 | 0.00 | 0.00 | 0.00 | 40 | 1025.5 |
| 20260509154606 | 14 | 75 | 1.6 | 6.4 | 0.00 | 0.00 | 0.00 | 40 | 1025.7 |
| 20260509154058 | 13 | 27 | 3.2 | 6.4 | 0.00 | 0.00 | 0.00 | 43 | 1025.6 |
| 20260509153557 | 13 | 62 | 3.2 | 6.4 | 0.00 | 0.00 | 0.00 | 44 | 1025.6 |
| 20260509153059 | 13 | 0 | 0.0 | 4.8 | 0.00 | 0.00 | 0.00 | 44 | 1025.5 |
| 20260509152557 | 13 | 49 | 0.0 | 4.8 | 0.00 | 0.00 | 0.00 | 47 | 1025.7 |
| 20260509152057 | 12 | 56 | 0.0 | 4.8 | 0.00 | 0.00 | 0.00 | 48 | 1025.7 |
| 20260509151559 | 12 | 51 | 1.6 | 3.2 | 0.00 | 0.00 | 0.00 | 49 | 1025.7 |
| 20260509151058 | 12 | 68 | 1.6 | 4.8 | 0.00 | 0.00 | 0.00 | 50 | 1025.7 |
| 20260509150558 | 11 | 60 | 3.2 | 4.8 | 0.00 | 0.00 | 0.00 | 49 | 1025.8 |
| 20260509150058 | 11 | 63 | 0.0 | 4.8 | 0.00 | 0.00 | 0.00 | 51 | 1025.9 |
| 20260509145558 | 11 | 298 | 0.0 | 4.8 | 0.00 | 0.00 | 0.00 | 50 | 1025.8 |
| 20260509145059 | 11 | 38 | 0.0 | 3.2 | 0.00 | 0.00 | 0.00 | 53 | 1025.7 |
| 20260509144558 | 10 | 0 | 0.0 | 3.2 | 0.00 | 0.00 | 0.00 | 56 | 1025.7 |
| 20260509144057 | 9 | 56 | 0.0 | 1.6 | 0.00 | 0.00 | 0.00 | 56 | 1025.7 |
| 20260509143558 | 8 | 67 | 0.0 | 1.6 | 0.00 | 0.00 | 0.00 | 60 | 1025.9 |
| 20260509143103 | 8 | 0 | 0.0 | 1.6 | 0.00 | 0.00 | 0.00 | 61 | 1026.0 |
| 20260509142557 | 8 | 0 | 0.0 | 1.6 | 0.00 | 0.00 | 0.00 | 64 | 1026.0 |
| 20260509142058 | 8 | 122 | 0.0 | 1.6 | 0.00 | 0.00 | 0.00 | 63 | 1026.0 |
| 20260509141609 | 8 | 165 | 0.0 | 0.0 | 0.00 | 0.00 | 0.00 | 63 | 1026.0 |
| 20260509141059 | 7 | 0 | 0.0 | 0.0 | 0.00 | 0.00 | 0.00 | 60 | 1026.0 |
| 20260509140558 | 7 | 0 | 0.0 | 0.0 | 0.00 | 0.00 | 0.00 | 62 | 1026.0 |
| 20260509140107 | 6 | 0 | 0.0 | 0.0 | 0.00 | 0.00 | 0.00 | 63 | 1026.0 |
| 20260509135559 | 6 | 0 | 0.0 | 1.6 | 0.00 | 0.00 | 0.00 | 62 | 1026.0 |
| 20260509135057 | 5 | 0 | 0.0 | 1.6 | 0.00 | 0.00 | 0.00 | 68 | 1026.0 |
| 20260509134603 | 3 | 0 | 0.0 | 1.6 | 0.00 | 0.00 | 0.00 | 71 | 1026.0 |
| 20260509134102 | 2 | 0 | 0.0 | 1.6 | 0.00 | 0.00 | 0.00 | 69 | 1026.0 |
| 20260509133558 | 2 | 0 | 0.0 | 1.6 | 0.00 | 0.00 | 0.00 | 71 | 1025.9 |
| 20260509133105 | 2 | 0 | 0.0 | 1.6 | 0.00 | 0.00 | 0.00 | 73 | 1025.8 |
| 20260509132558 | 2 | 196 | 0.0 | 0.0 | 0.00 | 0.00 | 0.00 | 73 | 1025.6 |
| 20260509132102 | 2 | 205 | 0.0 | 1.6 | 0.00 | 0.00 | 0.00 | 70 | 1025.5 |
| 20260509131557 | 2 | 0 | 0.0 | 1.6 | 0.00 | 0.00 | 0.00 | 70 | 1025.3 |
| 20260509131057 | 2 | 0 | 0.0 | 0.0 | 0.00 | 0.00 | 0.00 | 70 | 1025.2 |
| 20260509130557 | 2 | 0 | 0.0 | 0.0 | 0.00 | 0.00 | 0.00 | 70 | 1025.2 |
| 20260509130104 | 2 | 0 | 0.0 | 0.0 | 0.00 | 0.00 | 0.00 | 69 | 1025.1 |
| 20260509125558 | 2 | 0 | 0.0 | 0.0 | 0.00 | 0.00 | 0.00 | 68 | 1025.1 |
| 20260509125057 | 2 | 0 | 0.0 | 0.0 | 0.00 | 0.00 | 0.00 | 68 | 1025.0 |
| 20260509124607 | 2 | 0 | 0.0 | 0.0 | 0.00 | 0.00 | 0.00 | 68 | 1025.0 |
| 20260509124057 | 2 | 0 | 0.0 | 0.0 | 0.00 | 0.00 | 0.00 | 69 | 1025.0 |
| 20260509123557 | 2 | 0 | 0.0 | 1.6 | 0.00 | 0.00 | 0.00 | 69 | 1025.1 |
| 20260509123100 | 3 | 0 | 0.0 | 3.2 | 0.00 | 0.00 | 0.00 | 68 | 1025.0 |
| 20260509122557 | 3 | 0 | 0.0 | 3.2 | 0.00 | 0.00 | 0.00 | 66 | 1024.9 |
| 20260509122058 | 3 | 213 | 0.0 | 1.6 | 0.00 | 0.00 | 0.00 | 66 | 1024.9 |
| 20260509121602 | 3 | 0 | 0.0 | 0.0 | 0.00 | 0.00 | 0.00 | 66 | 1024.9 |
| 20260509121102 | 3 | 0 | 0.0 | 3.2 | 0.00 | 0.00 | 0.00 | 67 | 1024.8 |
| 20260509120558 | 3 | 0 | 0.0 | 3.2 | 0.00 | 0.00 | 0.00 | 66 | 1024.9 |
| 20260509120059 | 3 | 176 | 0.0 | 3.2 | 0.00 | 0.00 | 0.00 | 65 | 1024.9 |
| 20260509115557 | 3 | 141 | 1.6 | 3.2 | 0.00 | 0.00 | 0.00 | 64 | 1024.8 |
| 20260509115057 | 3 | 0 | 0.0 | 0.0 | 0.00 | 0.00 | 0.00 | 65 | 1024.9 |
| 20260509114604 | 3 | 0 | 0.0 | 1.6 | 0.00 | 0.00 | 0.00 | 63 | 1024.9 |
| 20260509114059 | 4 | 0 | 0.0 | 1.6 | 0.00 | 0.00 | 0.00 | 62 | 1024.9 |
| 20260509113558 | 4 | 0 | 0.0 | 1.6 | 0.00 | 0.00 | 0.00 | 62 | 1024.8 |
| 20260509113058 | 4 | 0 | 0.0 | 0.0 | 0.00 | 0.00 | 0.00 | 62 | 1024.8 |
| 20260509112559 | 4 | 0 | 0.0 | 1.6 | 0.00 | 0.00 | 0.00 | 61 | 1024.7 |
| 20260509112057 | 5 | 0 | 0.0 | 1.6 | 0.00 | 0.00 | 0.00 | 60 | 1024.6 |
| 20260509111559 | 5 | 0 | 0.0 | 1.6 | 0.00 | 0.00 | 0.00 | 60 | 1024.7 |
| 20260509111057 | 5 | 0 | 0.0 | 0.0 | 0.00 | 0.00 | 0.00 | 60 | 1024.7 |
| 20260509110557 | 5 | 0 | 0.0 | 0.0 | 0.00 | 0.00 | 0.00 | 61 | 1024.6 |
| 20260509110057 | 5 | 0 | 0.0 | 3.2 | 0.00 | 0.00 | 0.00 | 62 | 1024.6 |
| 20260509105558 | 5 | 0 | 0.0 | 3.2 | 0.00 | 0.00 | 0.00 | 62 | 1024.6 |
| 20260509105059 | 4 | 0 | 0.0 | 0.0 | 0.00 | 0.00 | 0.00 | 62 | 1024.6 |
| 20260509104558 | 5 | 0 | 0.0 | 1.6 | 0.00 | 0.00 | 0.00 | 61 | 1024.6 |
| 20260509104058 | 5 | 0 | 0.0 | 1.6 | 0.00 | 0.00 | 0.00 | 61 | 1024.5 |
| 20260509103558 | 5 | 0 | 0.0 | 1.6 | 0.00 | 0.00 | 0.00 | 61 | 1024.4 |
| 20260509103102 | 5 | 0 | 0.0 | 0.0 | 0.00 | 0.00 | 0.00 | 61 | 1024.4 |
| 20260509102559 | 5 | 0 | 0.0 | 1.6 | 0.00 | 0.00 | 0.00 | 61 | 1024.5 |
| 20260509102058 | 5 | 0 | 0.0 | 1.6 | 0.00 | 0.00 | 0.00 | 60 | 1024.6 |
| 20260509101559 | 5 | 186 | 0.0 | 1.6 | 0.00 | 0.00 | 0.00 | 60 | 1024.8 |
| 20260509101057 | 5 | 0 | 0.0 | 3.2 | 0.00 | 0.00 | 0.00 | 59 | 1024.7 |
| 20260509100557 | 6 | 0 | 0.0 | 3.2 | 0.00 | 0.00 | 0.00 | 58 | 1024.6 |
| 20260509095600 | 6 | 0 | 0.0 | 4.8 | 0.00 | 0.00 | 0.00 | 58 | 1024.4 |
| 20260509095057 | 6 | 169 | 1.6 | 4.8 | 0.00 | 0.00 | 0.00 | 58 | 1024.4 |
| 20260509094559 | 6 | 0 | 0.0 | 3.2 | 0.00 | 0.00 | 0.00 | 59 | 1024.5 |
| 20260509094059 | 6 | 0 | 0.0 | 3.2 | 0.00 | 0.00 | 0.00 | 60 | 1024.6 |
| 20260509093557 | 6 | 181 | 0.0 | 3.2 | 0.00 | 0.00 | 0.00 | 59 | 1024.7 |
| 20260509093100 | 6 | 0 | 0.0 | 3.2 | 0.00 | 0.00 | 0.00 | 59 | 1024.7 |
| 20260509092559 | 6 | 0 | 0.0 | 3.2 | 0.00 | 0.00 | 0.00 | 59 | 1024.7 |
| 20260509092102 | 7 | 0 | 0.0 | 3.2 | 0.00 | 0.00 | 0.00 | 59 | 1024.8 |
| 20260509091557 | 6 | 0 | 0.0 | 4.8 | 0.00 | 0.00 | 0.00 | 60 | 1024.8 |
| 20260509091059 | 6 | 0 | 0.0 | 4.8 | 0.00 | 0.00 | 0.00 | 59 | 1024.7 |
| 20260509090558 | 6 | 176 | 0.0 | 3.2 | 0.00 | 0.00 | 0.00 | 60 | 1024.7 |
| 20260509090056 | 6 | 0 | 0.0 | 3.2 | 0.00 | 0.00 | 0.00 | 59 | 1024.7 |
| 20260509085559 | 7 | 235 | 0.0 | 3.2 | 0.00 | 0.00 | 0.00 | 61 | 1024.7 |
| 20260509085058 | 7 | 0 | 0.0 | 3.2 | 0.00 | 0.00 | 0.00 | 62 | 1024.6 |
| 20260509084600 | 6 | 179 | 1.6 | 3.2 | 0.00 | 0.00 | 0.00 | 62 | 1024.7 |
| 20260509084058 | 6 | 0 | 0.0 | 1.6 | 0.00 | 0.00 | 0.00 | 62 | 1024.7 |
| 20260509083557 | 7 | 248 | 0.0 | 3.2 | 0.00 | 0.00 | 0.00 | 61 | 1024.7 |
| 20260509083105 | 7 | 0 | 0.0 | 3.2 | 0.00 | 0.00 | 0.00 | 61 | 1024.6 |
| 20260509082557 | 7 | 203 | 1.6 | 3.2 | 0.00 | 0.00 | 0.00 | 59 | 1024.6 |
| 20260509082057 | 7 | 168 | 0.0 | 3.2 | 0.00 | 0.00 | 0.00 | 59 | 1024.8 |
| 20260509081555 | 7 | 0 | 0.0 | 3.2 | 0.00 | 0.00 | 0.00 | 58 | 1024.7 |
| 20260509081057 | 7 | 0 | 0.0 | 4.8 | 0.00 | 0.00 | 0.00 | 60 | 1024.9 |
| 20260509080559 | 7 | 173 | 0.0 | 4.8 | 0.00 | 0.00 | 0.00 | 57 | 1024.9 |
| 20260509080100 | 7 | 169 | 0.0 | 3.2 | 0.00 | 0.00 | 0.00 | 58 | 1025.1 |
| 20260509075601 | 7 | 0 | 0.0 | 3.2 | 0.00 | 0.00 | 0.00 | 58 | 1025.1 |
| 20260509075058 | 7 | 188 | 0.0 | 3.2 | 0.00 | 0.00 | 0.00 | 59 | 1025.1 |
| 20260509074559 | 7 | 0 | 0.0 | 3.2 | 0.00 | 0.00 | 0.00 | 57 | 1025.1 |
| 20260509074057 | 7 | 224 | 0.0 | 3.2 | 0.00 | 0.00 | 0.00 | 60 | 1025.1 |
| 20260509073558 | 8 | 0 | 0.0 | 3.2 | 0.00 | 0.00 | 0.00 | 55 | 1024.8 |
| 20260509073059 | 8 | 172 | 0.0 | 3.2 | 0.00 | 0.00 | 0.00 | 61 | 1024.6 |
| 20260509072600 | 8 | 0 | 0.0 | 1.6 | 0.00 | 0.00 | 0.00 | 54 | 1024.7 |
| 20260509072059 | 8 | 0 | 0.0 | 1.6 | 0.00 | 0.00 | 0.00 | 54 | 1024.7 |
| 20260509071558 | 8 | 0 | 0.0 | 1.6 | 0.00 | 0.00 | 0.00 | 53 | 1024.6 |
| 20260509071058 | 8 | 0 | 0.0 | 1.6 | 0.00 | 0.00 | 0.00 | 54 | 1024.6 |
| 20260509070559 | 8 | 0 | 0.0 | 1.6 | 0.00 | 0.00 | 0.00 | 54 | 1024.5 |
| 20260509070057 | 8 | 0 | 0.0 | 1.6 | 0.00 | 0.00 | 0.00 | 56 | 1024.5 |
| 20260509065558 | 8 | 0 | 0.0 | 1.6 | 0.00 | 0.00 | 0.00 | 52 | 1024.5 |
| 20260509065058 | 8 | 0 | 0.0 | 1.6 | 0.00 | 0.00 | 0.00 | 51 | 1024.4 |
| 20260509064617 | 9 | 0 | 0.0 | 1.6 | 0.00 | 0.00 | 0.00 | 51 | 1024.4 |
| 20260509064058 | 9 | 0 | 0.0 | 0.0 | 0.00 | 0.00 | 0.00 | 52 | 1024.5 |
| 20260509063558 | 9 | 0 | 0.0 | 0.0 | 0.00 | 0.00 | 0.00 | 54 | 1024.6 |
| 20260509063059 | 9 | 0 | 0.0 | 0.0 | 0.00 | 0.00 | 0.00 | 54 | 1024.6 |
| 20260509062558 | 9 | 0 | 0.0 | 1.6 | 0.00 | 0.00 | 0.00 | 52 | 1024.6 |
| 20260509062101 | 9 | 0 | 0.0 | 3.2 | 0.00 | 0.00 | 0.00 | 52 | 1024.8 |
| 20260509061558 | 9 | 235 | 0.0 | 3.2 | 0.00 | 0.00 | 0.00 | 55 | 1024.7 |
| 20260509061057 | 9 | 179 | 1.6 | 4.8 | 0.00 | 0.00 | 0.00 | 57 | 1024.6 |
| 20260509060557 | 9 | 0 | 0.0 | 4.8 | 0.00 | 0.00 | 0.00 | 58 | 1024.8 |
| 20260509060108 | 9 | 177 | 1.6 | 4.8 | 0.00 | 0.00 | 0.00 | 58 | 1024.8 |
| 20260509055600 | 9 | 233 | 0.0 | 3.2 | 0.00 | 0.00 | 0.00 | 60 | 1024.8 |
| 20260509055101 | 9 | 0 | 0.0 | 3.2 | 0.00 | 0.00 | 0.00 | 61 | 1024.9 |
| 20260509054603 | 9 | 176 | 0.0 | 3.2 | 0.00 | 0.00 | 0.00 | 62 | 1024.7 |
| 20260509054101 | 10 | 167 | 0.0 | 3.2 | 0.00 | 0.00 | 0.00 | 61 | 1024.7 |
| 20260509053558 | 10 | 207 | 0.0 | 8.0 | 0.00 | 0.00 | 0.00 | 64 | 1024.9 |
| 20260509053108 | 10 | 0 | 0.0 | 8.0 | 0.00 | 0.00 | 0.00 | 61 | 1024.9 |
| 20260509052557 | 11 | 210 | 0.0 | 8.0 | 0.00 | 0.00 | 0.00 | 60 | 1024.7 |
| 20260509052058 | 10 | 0 | 1.6 | 3.2 | 0.00 | 0.00 | 0.00 | 64 | 1024.7 |
| 20260509051603 | 11 | 0 | 0.0 | 3.2 | 0.00 | 0.00 | 0.00 | 62 | 1024.7 |
| 20260509051058 | 11 | 166 | 0.0 | 1.6 | 0.00 | 0.00 | 0.00 | 63 | 1024.7 |
| 20260509050600 | 11 | 70 | 0.0 | 1.6 | 0.00 | 0.00 | 0.00 | 61 | 1024.5 |
| 20260509050105 | 11 | 0 | 0.0 | 1.6 | 0.00 | 0.00 | 0.00 | 63 | 1024.7 |
| 20260509045557 | 11 | 0 | 0.0 | 0.0 | 0.00 | 0.00 | 0.00 | 60 | 1024.7 |
| 20260509045057 | 12 | 0 | 0.0 | 0.0 | 0.00 | 0.00 | 0.00 | 61 | 1024.5 |
| 20260509044559 | 12 | 0 | 0.0 | 1.6 | 0.00 | 0.00 | 0.00 | 58 | 1024.7 |
| 20260509044058 | 12 | 0 | 0.0 | 1.6 | 0.00 | 0.00 | 0.00 | 55 | 1024.5 |
| 20260509043557 | 12 | 0 | 0.0 | 3.2 | 0.00 | 0.00 | 0.00 | 55 | 1024.6 |
| 20260509043101 | 13 | 0 | 0.0 | 3.2 | 0.00 | 0.00 | 0.00 | 55 | 1024.6 |
| 20260509042558 | 12 | 46 | 0.0 | 3.2 | 0.00 | 0.00 | 0.00 | 55 | 1024.4 |
| 20260509042058 | 13 | 0 | 0.0 | 1.6 | 0.00 | 0.00 | 0.00 | 53 | 1024.3 |
| 20260509041556 | 13 | 0 | 0.0 | 1.6 | 0.00 | 0.00 | 0.00 | 55 | 1024.3 |
| 20260509041058 | 13 | 199 | 0.0 | 1.6 | 0.00 | 0.00 | 0.00 | 51 | 1024.3 |
| 20260509040557 | 13 | 0 | 0.0 | 3.2 | 0.00 | 0.00 | 0.00 | 53 | 1024.3 |
| 20260509040100 | 13 | 0 | 0.0 | 3.2 | 0.00 | 0.00 | 0.00 | 51 | 1024.2 |
| 20260509035600 | 13 | 237 | 1.6 | 3.2 | 0.00 | 0.00 | 0.00 | 53 | 1024.3 |
| 20260509035100 | 14 | 0 | 0.0 | 3.2 | 0.00 | 0.00 | 0.00 | 56 | 1024.0 |
| 20260509034558 | 14 | 0 | 0.0 | 3.2 | 0.00 | 0.00 | 0.00 | 52 | 1023.9 |
| 20260509034057 | 14 | 82 | 0.0 | 3.2 | 0.00 | 0.00 | 0.00 | 53 | 1024.0 |
| 20260509033600 | 14 | 169 | 0.0 | 9.7 | 0.00 | 0.00 | 0.00 | 51 | 1023.8 |
| 20260509033109 | 15 | 0 | 0.0 | 11.3 | 0.00 | 0.00 | 0.00 | 51 | 1023.7 |
| 20260509032558 | 15 | 60 | 6.4 | 12.9 | 0.00 | 0.00 | 0.00 | 51 | 1023.6 |
| 20260509032058 | 15 | 69 | 9.7 | 12.9 | 0.00 | 0.00 | 0.00 | 53 | 1023.5 |
| 20260509031605 | 15 | 83 | 0.0 | 6.4 | 0.00 | 0.00 | 0.00 | 32 | 1023.3 |
| 20260509031058 | 15 | 0 | 1.6 | 6.4 | 0.00 | 0.00 | 0.00 | 31 | 1023.1 |
| 20260509030558 | 16 | 161 | 0.0 | 3.2 | 0.00 | 0.00 | 0.00 | 30 | 1023.1 |
| 20260509030057 | 16 | 191 | 0.0 | 1.6 | 0.00 | 0.00 | 0.00 | 27 | 1023.2 |
| 20260509025557 | 17 | 0 | 0.0 | 4.8 | 0.00 | 0.00 | 0.00 | 26 | 1023.1 |
| 20260509025102 | 17 | 0 | 0.0 | 4.8 | 0.00 | 0.00 | 0.00 | 26 | 1023.0 |
| 20260509024555 | 17 | 314 | 0.0 | 4.8 | 0.00 | 0.00 | 0.00 | 28 | 1022.9 |
| 20260509024059 | 18 | 0 | 1.6 | 4.8 | 0.00 | 0.00 | 0.00 | 32 | 1022.9 |
| 20260509023558 | 18 | 311 | 0.0 | 6.4 | 0.00 | 0.00 | 0.00 | 32 | 1022.9 |
| 20260509023106 | 18 | 0 | 1.6 | 6.4 | 0.00 | 0.00 | 0.00 | 27 | 1022.9 |
| 20260509022558 | 18 | 7 | 0.0 | 6.4 | 0.00 | 0.00 | 0.00 | 28 | 1022.9 |
| 20260509022058 | 18 | 13 | 0.0 | 4.8 | 0.00 | 0.00 | 0.00 | 26 | 1022.9 |
| 20260509021559 | 19 | 336 | 0.0 | 3.2 | 0.00 | 0.00 | 0.00 | 27 | 1022.9 |
| 20260509021102 | 20 | 23 | 0.0 | 3.2 | 0.00 | 0.00 | 0.00 | 23 | 1022.7 |
| 20260509020557 | 20 | 20 | 0.0 | 6.4 | 0.00 | 0.00 | 0.00 | 22 | 1022.7 |
| 20260509020057 | 20 | 252 | 1.6 | 8.0 | 0.00 | 0.00 | 0.00 | 23 | 1022.7 |
| 20260509015558 | 20 | 0 | 0.0 | 8.0 | 0.00 | 0.00 | 0.00 | 23 | 1022.6 |
| 20260509015059 | 20 | 0 | 0.0 | 6.4 | 0.00 | 0.00 | 0.00 | 22 | 1022.6 |
| 20260509014555 | 21 | 55 | 0.0 | 11.3 | 0.00 | 0.00 | 0.00 | 22 | 1022.6 |
| 20260509014058 | 21 | 248 | 0.0 | 11.3 | 0.00 | 0.00 | 0.00 | 21 | 1022.5 |
| 20260509013558 | 22 | 200 | 0.0 | 3.2 | 0.00 | 0.00 | 0.00 | 20 | 1022.6 |
| 20260509013109 | 22 | 143 | 0.0 | 11.3 | 0.00 | 0.00 | 0.00 | 19 | 1022.4 |
| 20260509012558 | 22 | 77 | 1.6 | 11.3 | 0.00 | 0.00 | 0.00 | 19 | 1022.5 |
| 20260509012058 | 22 | 0 | 1.6 | 9.7 | 0.00 | 0.00 | 0.00 | 19 | 1022.5 |
| 20260509011559 | 22 | 309 | 3.2 | 11.3 | 0.00 | 0.00 | 0.00 | 18 | 1022.6 |
| 20260509011057 | 22 | 272 | 1.6 | 11.3 | 0.00 | 0.00 | 0.00 | 18 | 1022.5 |
| 20260509010601 | 22 | 265 | 1.6 | 9.7 | 0.00 | 0.00 | 0.00 | 18 | 1022.6 |
| 20260509010059 | 23 | 0 | 1.6 | 12.9 | 0.00 | 0.00 | 0.00 | 18 | 1022.6 |
| 20260509005559 | 23 | 330 | 1.6 | 12.9 | 0.00 | 0.00 | 0.00 | 19 | 1022.6 |
| 20260509005058 | 23 | 0 | 3.2 | 14.5 | 0.00 | 0.00 | 0.00 | 19 | 1022.6 |
| 20260509004628 | 23 | 295 | 1.6 | 16.1 | 0.00 | 0.00 | 0.00 | 19 | 1022.5 |
| 20260509004058 | 23 | 246 | 3.2 | 16.1 | 0.00 | 0.00 | 0.00 | 18 | 1022.6 |
| 20260509003558 | 23 | 111 | 0.0 | 14.5 | 0.00 | 0.00 | 0.00 | 19 | 1022.6 |
| 20260509003102 | 23 | 96 | 1.6 | 14.5 | 0.00 | 0.00 | 0.00 | 18 | 1022.6 |
| 20260509002558 | 23 | 349 | 1.6 | 9.7 | 0.00 | 0.00 | 0.00 | 18 | 1022.6 |
| 20260509002058 | 24 | 55 | 0.0 | 9.7 | 0.00 | 0.00 | 0.00 | 18 | 1022.6 |
| 20260509001601 | 24 | 113 | 0.0 | 9.7 | 0.00 | 0.00 | 0.00 | 18 | 1022.8 |
| 20260509001058 | 24 | 0 | 0.0 | 9.7 | 0.00 | 0.00 | 0.00 | 17 | 1022.7 |
| 20260509000602 | 24 | 62 | 1.6 | 9.7 | 0.00 | 0.00 | 0.00 | 18 | 1022.8 |
| 20260508235558 | 24 | 314 | 1.6 | 16.1 | 0.00 | 0.00 | 0.00 | 17 | 1022.7 |
| 20260508235058 | 24 | 137 | 1.6 | 16.1 | 0.00 | 0.00 | 0.00 | 16 | 1022.8 |
| 20260508234558 | 24 | 117 | 3.2 | 16.1 | 0.00 | 0.00 | 0.00 | 17 | 1022.9 |
| 20260508234059 | 24 | 117 | 4.8 | 16.1 | 0.00 | 0.00 | 0.00 | 15 | 1022.9 |
| 20260508233558 | 24 | 217 | 3.2 | 14.5 | 0.00 | 0.00 | 0.00 | 15 | 1023.0 |
| 20260508233134 | 24 | 130 | 3.2 | 14.5 | 0.00 | 0.00 | 0.00 | 15 | 1022.9 |
| 20260508232558 | 25 | 238 | 1.6 | 9.7 | 0.00 | 0.00 | 0.00 | 14 | 1023.0 |
| 20260508232058 | 25 | 98 | 1.6 | 8.0 | 0.00 | 0.00 | 0.00 | 16 | 1023.0 |
| 20260508231558 | 25 | 124 | 1.6 | 14.5 | 0.00 | 0.00 | 0.00 | 15 | 1023.0 |
| 20260508231058 | 25 | 30 | 1.6 | 14.5 | 0.00 | 0.00 | 0.00 | 13 | 1023.0 |
| 20260508230558 | 25 | 163 | 3.2 | 12.9 | 0.00 | 0.00 | 0.00 | 14 | 1022.9 |
| 20260508230101 | 25 | 4 | 3.2 | 17.7 | 0.00 | 0.00 | 0.00 | 13 | 1022.9 |
| 20260508225558 | 25 | 215 | 1.6 | 17.7 | 0.00 | 0.00 | 0.00 | 13 | 1023.0 |
| 20260508225058 | 25 | 101 | 1.6 | 17.7 | 0.00 | 0.00 | 0.00 | 14 | 1023.1 |
| 20260508224621 | 25 | 0 | 0.0 | 11.3 | 0.00 | 0.00 | 0.00 | 11 | 1023.1 |
| 20260508224058 | 25 | 44 | 1.6 | 11.3 | 0.00 | 0.00 | 0.00 | 10 | 1022.9 |
| 20260508223559 | 25 | 130 | 3.2 | 14.5 | 0.00 | 0.00 | 0.00 | 13 | 1023.0 |
| 20260508223110 | 25 | 284 | 1.6 | 14.5 | 0.00 | 0.00 | 0.00 | 11 | 1023.1 |